| time (UTC) | temp C | wind direction | speed KPH | gust KPH | rain 1hr cm | rain 24hr cm | rain mn cm | humidity % | barometer mb |
| 20260504150503 | 14 | 4 | 19.3 | 37.0 | 0.00 | 0.00 | 0.00 | 44 | 1008.0 |
| 20260504141005 | 12 | 355 | 22.5 | 38.6 | 0.00 | 0.00 | 0.00 | 49 | 1007.4 |
| 20260504140503 | 12 | 5 | 19.3 | 38.6 | 0.00 | 0.00 | 0.00 | 50 | 1007.4 |
| 20260504130503 | 11 | 306 | 12.9 | 22.5 | 0.00 | 0.00 | 0.00 | 72 | 1005.9 |
| 20260504100503 | 8 | 262 | 17.7 | 20.9 | 0.00 | 0.00 | 0.00 | 80 | 1004.6 |
| 20260504082005 | 8 | 240 | 14.5 | 22.5 | 0.00 | 0.00 | 0.00 | 83 | 1005.1 |
| 20260504081503 | 8 | 240 | 12.9 | 20.9 | 0.00 | 0.00 | 0.00 | 83 | 1005.2 |
| 20260504081005 | 8 | 238 | 11.3 | 20.9 | 0.00 | 0.00 | 0.00 | 83 | 1005.3 |
| 20260504050503 | 12 | 241 | 6.4 | 8.0 | 0.00 | 0.00 | 0.00 | 70 | 1006.6 |
| 20260504050006 | 12 | 244 | 6.4 | 8.0 | 0.00 | 0.00 | 0.00 | 70 | 1006.7 |
| 20260504045005 | 12 | 236 | 6.4 | 11.3 | 0.00 | 0.00 | 0.00 | 69 | 1006.9 |
| 20260504044504 | 13 | 236 | 6.4 | 9.7 | 0.00 | 0.00 | 0.00 | 69 | 1006.9 |
| 20260504044005 | 13 | 244 | 6.4 | 8.0 | 0.00 | 0.00 | 0.00 | 69 | 1006.9 |
| 20260504043503 | 13 | 244 | 6.4 | 11.3 | 0.00 | 0.00 | 0.00 | 67 | 1006.9 |
| 20260504043005 | 13 | 237 | 6.4 | 11.3 | 0.00 | 0.00 | 0.00 | 67 | 1007.0 |
| 20260504042504 | 13 | 220 | 6.4 | 12.9 | 0.00 | 0.00 | 0.00 | 66 | 1007.1 |
| 20260504042005 | 13 | 218 | 6.4 | 12.9 | 0.00 | 0.00 | 0.00 | 65 | 1007.0 |
| 20260504041503 | 13 | 228 | 6.4 | 12.9 | 0.00 | 0.00 | 0.00 | 64 | 1007.1 |
| 20260504041005 | 13 | 241 | 6.4 | 12.9 | 0.00 | 0.00 | 0.00 | 64 | 1007.4 |
| 20260504040503 | 13 | 246 | 6.4 | 11.3 | 0.00 | 0.00 | 0.00 | 64 | 1007.5 |
| 20260504040005 | 13 | 219 | 6.4 | 8.0 | 0.00 | 0.00 | 0.00 | 64 | 1007.5 |
| 20260504035503 | 14 | 216 | 6.4 | 8.0 | 0.00 | 0.00 | 0.00 | 63 | 1007.5 |
| 20260504034504 | 14 | 241 | 4.8 | 8.0 | 0.00 | 0.00 | 0.00 | 61 | 1007.5 |
| 20260504034004 | 14 | 239 | 4.8 | 8.0 | 0.00 | 0.00 | 0.00 | 60 | 1007.5 |
| 20260504033504 | 14 | 247 | 6.4 | 8.0 | 0.00 | 0.00 | 0.00 | 60 | 1007.6 |
| 20260504033005 | 14 | 264 | 6.4 | 8.0 | 0.00 | 0.00 | 0.00 | 61 | 1007.7 |
| 20260504032504 | 14 | 254 | 6.4 | 8.0 | 0.00 | 0.00 | 0.00 | 60 | 1007.7 |
| 20260504032005 | 15 | 236 | 6.4 | 8.0 | 0.00 | 0.00 | 0.00 | 60 | 1007.8 |
| 20260504031005 | 15 | 242 | 6.4 | 16.1 | 0.00 | 0.00 | 0.00 | 59 | 1007.9 |
| 20260504030503 | 15 | 261 | 11.3 | 17.7 | 0.00 | 0.00 | 0.00 | 59 | 1007.9 |
| 20260504030005 | 15 | 259 | 14.5 | 22.5 | 0.00 | 0.00 | 0.00 | 59 | 1008.1 |
| 20260504025504 | 15 | 255 | 19.3 | 32.2 | 0.00 | 0.00 | 0.00 | 58 | 1008.4 |
| 20260504025005 | 15 | 258 | 22.5 | 32.2 | 0.00 | 0.00 | 0.00 | 59 | 1008.6 |
| 20260504024005 | 15 | 268 | 25.7 | 38.6 | 0.00 | 0.00 | 0.00 | 60 | 1008.9 |
| 20260504023504 | 15 | 270 | 29.0 | 38.6 | 0.00 | 0.00 | 0.00 | 61 | 1009.0 |
| 20260504023004 | 15 | 263 | 30.6 | 48.3 | 0.00 | 0.00 | 0.00 | 60 | 1009.1 |
| 20260504022504 | 16 | 261 | 32.2 | 48.3 | 0.00 | 0.00 | 0.00 | 56 | 1009.1 |
| 20260504022005 | 16 | 256 | 24.1 | 43.5 | 0.00 | 0.00 | 0.00 | 51 | 1009.0 |
| 20260504020503 | 15 | 305 | 1.6 | 8.0 | 0.00 | 0.00 | 0.00 | 53 | 1008.1 |
| 20260504020005 | 16 | 318 | 0.0 | 3.2 | 0.00 | 0.00 | 0.00 | 51 | 1007.9 |
| 20260504015503 | 16 | 290 | 0.0 | 3.2 | 0.00 | 0.00 | 0.00 | 46 | 1007.7 |
| 20260504015005 | 16 | 290 | 0.0 | 3.2 | 0.00 | 0.00 | 0.00 | 46 | 1007.7 |
| 20260504013503 | 16 | 290 | 0.0 | 1.6 | 0.00 | 0.00 | 0.00 | 48 | 1007.9 |
| 20260504013005 | 16 | 289 | 0.0 | 1.6 | 0.00 | 0.00 | 0.00 | 49 | 1007.9 |
| 20260504011504 | 17 | 288 | 4.8 | 6.4 | 0.00 | 0.00 | 0.00 | 41 | 1008.0 |
| 20260504011004 | 18 | 273 | 4.8 | 6.4 | 0.00 | 0.00 | 0.00 | 38 | 1008.0 |
| 20260504010503 | 18 | 259 | 4.8 | 8.0 | 0.00 | 0.00 | 0.00 | 38 | 1007.9 |
| 20260504010005 | 18 | 270 | 6.4 | 8.0 | 0.00 | 0.00 | 0.00 | 35 | 1008.1 |
| 20260504005503 | 18 | 282 | 4.8 | 8.0 | 0.00 | 0.00 | 0.00 | 34 | 1008.1 |
| 20260504005005 | 18 | 277 | 4.8 | 6.4 | 0.00 | 0.00 | 0.00 | 35 | 1008.0 |
| 20260504003503 | 20 | 276 | 8.0 | 11.3 | 0.00 | 0.00 | 0.00 | 32 | 1008.2 |
| 20260504003005 | 20 | 283 | 8.0 | 16.1 | 0.00 | 0.00 | 0.00 | 32 | 1008.3 |
| 20260504002503 | 20 | 277 | 8.0 | 16.1 | 0.00 | 0.00 | 0.00 | 31 | 1008.3 |
| 20260504002005 | 21 | 280 | 6.4 | 12.9 | 0.00 | 0.00 | 0.00 | 30 | 1008.6 |
| 20260504001005 | 21 | 283 | 4.8 | 11.3 | 0.00 | 0.00 | 0.00 | 31 | 1008.7 |
| 20260504000503 | 21 | 268 | 1.6 | 11.3 | 0.00 | 0.00 | 0.00 | 30 | 1008.6 |
| 20260504000004 | 21 | 249 | 4.8 | 11.3 | 0.00 | 0.00 | 0.00 | 34 | 1008.8 |
| 20260503235504 | 21 | 248 | 4.8 | 11.3 | 0.00 | 0.00 | 0.00 | 30 | 1008.9 |
| 20260503234503 | 21 | 266 | 11.3 | 17.7 | 0.00 | 0.00 | 0.00 | 29 | 1009.1 |
| 20260503233503 | 21 | 313 | 11.3 | 20.9 | 0.00 | 0.00 | 0.00 | 29 | 1009.3 |
| 20260503233005 | 21 | 319 | 12.9 | 22.5 | 0.00 | 0.00 | 0.00 | 29 | 1009.4 |
| 20260503232503 | 21 | 331 | 11.3 | 22.5 | 0.00 | 0.00 | 0.00 | 30 | 1009.5 |
| 20260503232005 | 21 | 340 | 6.4 | 19.3 | 0.00 | 0.00 | 0.00 | 31 | 1009.6 |
| 20260503231005 | 21 | 319 | 8.0 | 17.7 | 0.00 | 0.00 | 0.00 | 32 | 1009.8 |
| 20260503225005 | 20 | 310 | 11.3 | 19.3 | 0.00 | 0.00 | 0.00 | 30 | 1009.9 |
| 20260503224005 | 21 | 281 | 11.3 | 17.7 | 0.00 | 0.00 | 0.00 | 28 | 1009.9 |
| 20260503223503 | 21 | 275 | 11.3 | 19.3 | 0.00 | 0.00 | 0.00 | 29 | 1010.0 |
| 20260503223005 | 21 | 285 | 12.9 | 20.9 | 0.00 | 0.00 | 0.00 | 27 | 1009.9 |
| 20260503222503 | 21 | 287 | 14.5 | 20.9 | 0.00 | 0.00 | 0.00 | 28 | 1010.0 |
| 20260503222005 | 21 | 274 | 14.5 | 22.5 | 0.00 | 0.00 | 0.00 | 28 | 1010.0 |
| 20260503221503 | 22 | 257 | 8.0 | 22.5 | 0.00 | 0.00 | 0.00 | 27 | 1010.1 |
| 20260503220503 | 20 | 216 | 6.4 | 19.3 | 0.00 | 0.00 | 0.00 | 28 | 1010.3 |
| 20260503220005 | 20 | 196 | 11.3 | 19.3 | 0.00 | 0.00 | 0.00 | 29 | 1010.4 |
| 20260503215503 | 20 | 217 | 12.9 | 19.3 | 0.00 | 0.00 | 0.00 | 30 | 1010.4 |
| 20260503215005 | 20 | 277 | 14.5 | 22.5 | 0.00 | 0.00 | 0.00 | 30 | 1010.5 |
| 20260503214503 | 21 | 288 | 14.5 | 22.5 | 0.00 | 0.00 | 0.00 | 29 | 1010.7 |
| 20260503214004 | 20 | 276 | 14.5 | 27.4 | 0.00 | 0.00 | 0.00 | 30 | 1010.7 |
| 20260503213503 | 20 | 281 | 19.3 | 32.2 | 0.00 | 0.00 | 0.00 | 29 | 1010.8 |
| 20260503213005 | 21 | 290 | 14.5 | 32.2 | 0.00 | 0.00 | 0.00 | 25 | 1010.9 |
| 20260503212503 | 21 | 274 | 8.0 | 29.0 | 0.00 | 0.00 | 0.00 | 28 | 1010.9 |
| 20260503212005 | 20 | 288 | 6.4 | 11.3 | 0.00 | 0.00 | 0.00 | 27 | 1011.0 |
| 20260503211504 | 20 | 310 | 6.4 | 12.9 | 0.00 | 0.00 | 0.00 | 33 | 1011.1 |
| 20260503211004 | 20 | 309 | 6.4 | 12.9 | 0.00 | 0.00 | 0.00 | 30 | 1011.2 |
| 20260503210503 | 20 | 332 | 11.3 | 17.7 | 0.00 | 0.00 | 0.00 | 29 | 1011.3 |
| 20260503210005 | 20 | 330 | 14.5 | 27.4 | 0.00 | 0.00 | 0.00 | 29 | 1011.3 |
| 20260503205503 | 20 | 301 | 17.7 | 27.4 | 0.00 | 0.00 | 0.00 | 29 | 1011.4 |
| 20260503205005 | 21 | 297 | 12.9 | 22.5 | 0.00 | 0.00 | 0.00 | 28 | 1011.4 |
| 20260503204503 | 21 | 357 | 8.0 | 19.3 | 0.00 | 0.00 | 0.00 | 28 | 1011.5 |
| 20260503204005 | 20 | 61 | 8.0 | 17.7 | 0.00 | 0.00 | 0.00 | 29 | 1011.6 |
| 20260503203503 | 20 | 36 | 11.3 | 20.9 | 0.00 | 0.00 | 0.00 | 28 | 1011.7 |
| 20260503203004 | 20 | 351 | 8.0 | 20.9 | 0.00 | 0.00 | 0.00 | 34 | 1011.8 |
| 20260503202503 | 20 | 324 | 11.3 | 20.9 | 0.00 | 0.00 | 0.00 | 31 | 1012.1 |
| 20260503201503 | 20 | 324 | 11.3 | 24.1 | 0.00 | 0.00 | 0.00 | 29 | 1012.2 |
| 20260503201005 | 20 | 9 | 8.0 | 17.7 | 0.00 | 0.00 | 0.00 | 30 | 1012.2 |
| 20260503200503 | 21 | 341 | 12.9 | 27.4 | 0.00 | 0.00 | 0.00 | 30 | 1012.3 |
| 20260503200005 | 21 | 346 | 12.9 | 27.4 | 0.00 | 0.00 | 0.00 | 28 | 1012.3 |
| 20260503195503 | 20 | 8 | 11.3 | 22.5 | 0.00 | 0.00 | 0.00 | 29 | 1012.4 |
| 20260503195005 | 20 | 9 | 11.3 | 22.5 | 0.00 | 0.00 | 0.00 | 29 | 1012.5 |
| 20260503194504 | 20 | 343 | 12.9 | 22.5 | 0.00 | 0.00 | 0.00 | 29 | 1012.5 |
| 20260503194005 | 20 | 342 | 11.3 | 20.9 | 0.00 | 0.00 | 0.00 | 30 | 1012.5 |
| 20260503193503 | 20 | 343 | 11.3 | 27.4 | 0.00 | 0.00 | 0.00 | 28 | 1012.6 |
| 20260503193005 | 20 | 337 | 8.0 | 27.4 | 0.00 | 0.00 | 0.00 | 32 | 1012.7 |
| 20260503192503 | 20 | 344 | 11.3 | 19.3 | 0.00 | 0.00 | 0.00 | 32 | 1012.8 |
| 20260503192005 | 20 | 331 | 12.9 | 27.4 | 0.00 | 0.00 | 0.00 | 32 | 1012.9 |
| 20260503191503 | 20 | 316 | 12.9 | 27.4 | 0.00 | 0.00 | 0.00 | 31 | 1013.0 |
| 20260503191005 | 19 | 321 | 12.9 | 24.1 | 0.00 | 0.00 | 0.00 | 29 | 1013.0 |
| 20260503190004 | 19 | 306 | 11.3 | 19.3 | 0.00 | 0.00 | 0.00 | 28 | 1013.2 |
| 20260503185503 | 20 | 312 | 11.3 | 19.3 | 0.00 | 0.00 | 0.00 | 28 | 1013.1 |
| 20260503185005 | 20 | 319 | 12.9 | 22.5 | 0.00 | 0.00 | 0.00 | 28 | 1013.1 |
| 20260503184503 | 20 | 315 | 14.5 | 22.5 | 0.00 | 0.00 | 0.00 | 29 | 1013.2 |
| 20260503184005 | 20 | 312 | 12.9 | 27.4 | 0.00 | 0.00 | 0.00 | 28 | 1013.2 |
| 20260503183004 | 20 | 339 | 12.9 | 24.1 | 0.00 | 0.00 | 0.00 | 29 | 1013.5 |
| 20260503182503 | 20 | 316 | 17.7 | 33.8 | 0.00 | 0.00 | 0.00 | 30 | 1013.6 |
| 20260503182006 | 20 | 314 | 19.3 | 33.8 | 0.00 | 0.00 | 0.00 | 30 | 1013.6 |
| 20260503181504 | 20 | 329 | 14.5 | 27.4 | 0.00 | 0.00 | 0.00 | 30 | 1013.8 |
| 20260503180504 | 19 | 334 | 12.9 | 27.4 | 0.00 | 0.00 | 0.00 | 31 | 1013.8 |
| 20260503180005 | 19 | 338 | 12.9 | 22.5 | 0.00 | 0.00 | 0.00 | 32 | 1013.9 |
| 20260503175503 | 20 | 8 | 12.9 | 22.5 | 0.00 | 0.00 | 0.00 | 31 | 1013.9 |
| 20260503174503 | 19 | 348 | 6.4 | 22.5 | 0.00 | 0.00 | 0.00 | 31 | 1013.8 |
| 20260503174004 | 18 | 322 | 11.3 | 22.5 | 0.00 | 0.00 | 0.00 | 31 | 1013.9 |
| 20260503173503 | 20 | 305 | 12.9 | 22.5 | 0.00 | 0.00 | 0.00 | 32 | 1013.8 |
| 20260503173005 | 18 | 299 | 17.7 | 27.4 | 0.00 | 0.00 | 0.00 | 32 | 1013.9 |
| 20260503172504 | 19 | 308 | 17.7 | 27.4 | 0.00 | 0.00 | 0.00 | 32 | 1014.0 |
| 20260503172004 | 19 | 334 | 11.3 | 27.4 | 0.00 | 0.00 | 0.00 | 31 | 1014.0 |
| 20260503171503 | 19 | 3 | 8.0 | 17.7 | 0.00 | 0.00 | 0.00 | 32 | 1014.1 |
| 20260503171005 | 18 | 8 | 8.0 | 19.3 | 0.00 | 0.00 | 0.00 | 31 | 1014.1 |
| 20260503170503 | 18 | 339 | 11.3 | 20.9 | 0.00 | 0.00 | 0.00 | 32 | 1014.1 |
| 20260503151005 | 15 | 301 | 17.7 | 22.5 | 0.00 | 0.00 | 0.00 | 48 | 1014.8 |